Regional Weather Roundup
Issued by NWS

Home | Current Version | Previous Version | Graphics & Text | Print | Product List | Glossary On
Versions: 1 2 3 4 5 6 7 8 9 10 11 12 13 14 15 16 17 18 19 20 21 22 23 24 25 26 27 28 29 30 31 32 33 34 35 36 37 38 39 40 41 42 43 44 45 46 47 48 49 50
576
ASUS43 KDMX 131308
RWRIA

WEATHER ROUNDUP FOR IOWA
NATIONAL WEATHER SERVICE DES MOINES IA
700 AM CST SAT FEB 13 2016

NOTE: "FAIR" INDICATES FEW OR NO CLOUDS BELOW 12,000 FEET WITH NO
SIGNIFICANT WEATHER AND/OR OBSTRUCTIONS TO VISIBILITY.

* - THESE STATIONS ARE NOT NWS STATIONS...THUS NOT UNDER NWS
QUALITY CONTROL.  THEY ALSO DO NOT REPORT WEATHER SUCH
AS PRECIPITATION OR FOG.

IAZ001>003-012>014-020>022-031>034-043>046-131400-
   NORTHWEST IOWA

CITY           SKY/WX    TMP DP  RH WIND       PRES   REMARKS
CARROLL *      CLOUDY     1  -6  71 E5        30.61S WCI  -8
CHEROKEE *     CLOUDY     1  -6  71 S5        30.60S WCI  -8
DENISON *      CLOUDY     3  -4  72 SE3       30.59R
LE MARS *      CLOUDY     3  -2  78 SE7       30.60F WCI  -9
ORANGE CITY *  CLOUDY     1  -4  78 S5        30.55F WCI  -8
SHELDON *      CLOUDY     0  -8  71 SE10      30.55S WCI -17
SIOUX CITY     CLOUDY     6  -3  66 SE9       30.59F WCI  -8
SPENCER        CLOUDY    -3 -10  72 E3        30.58R
STORM LAKE *   CLOUDY     0  -8  71 E6        30.58R WCI -12
$$

IAZ055>058-069>071-079>083-090>094-131400-
   SOUTHWEST IOWA

CITY           SKY/WX    TMP DP  RH WIND       PRES   REMARKS
ATLANTIC *     CLOUDY     5  -2  72 SE5       30.61F WCI  -4
AUDUBON *      CLOUDY     1  -4  78 CALM      30.60S
CLARINDA *     CLOUDY    10   1  67 E6        30.64F WCI   1
COUNCIL BLFS * CLOUDY     9   1  72 E8        30.59R WCI  -4
CRESTON *      PTCLDY     5  -4  66 E3        30.62R
HARLAN  *      CLOUDY     3  -2  78 E6        30.63F WCI  -8
LAMONI         CLOUDY     6  -2  69 NE3       30.62S
RED OAK *      CLOUDY    10   1  67 E5        30.63R WCI   2
SHENANDOAH *   CLOUDY    12   3  67 SE6       30.62F WCI   3
$$

IAZ047>049-059>061-072>074-084-131400-
   CENTRAL IOWA

CITY           SKY/WX    TMP DP  RH WIND       PRES   REMARKS
AMES           CLOUDY     0  -6  76 N5        30.64S WCI -10
ANKENY *       PTCLDY     1  -6  71 CALM      30.65R
BOONE *        MOCLDY     0  -8  71 N5        30.60S WCI -10
CHARITON *     CLOUDY     3  -4  72 N5        30.64R WCI  -6
DES MOINES     CLOUDY     4  -5  66 CALM      30.63S
GRINNELL*      CLOUDY     1  -6  71 N7        30.61F WCI -11
KNOXVILLE *    CLOUDY     3  -6  66 CALM      30.63R
MARSHALLTOWN   CLOUDY    -2  -7  79 CALM      30.61F
NEWTON *       CLEAR      1  -6  71 CALM      30.62S
PELLA *        CLOUDY     3  -4  72 CALM      30.66R
$$

IAZ004>006-015-016-023>025-035-036-131400-
   NORTH CENTRAL IOWA

CITY           SKY/WX    TMP DP  RH WIND       PRES   REMARKS
ALGONA *       CLEAR     -2  -6  84 NE6       30.58R WCI -14
CLARION *      CLEAR     -4  -9  77 CALM      30.61R
ESTHERVILLE    CLOUDY    -4  -8  83 NE7       30.57S WCI -18
FORT DODGE *   CLOUDY    -2  -9  71 N3        30.62S
MASON CITY     CLOUDY    -6 -12  75 W6        30.61R WCI -19
FOREST CITY *  CLEAR     -8 -13  77 NW3       30.59S
WEBSTER CITY * CLEAR     -2  -9  71 CALM      30.60S
IOWA FALLS *     N/A     -4  -8  84 CALM      30.61S
$$

IAZ007>011-017>019-026>030-037>042-050>054-066-131400-
   NORTHEAST IOWA

CITY           SKY/WX    TMP DP  RH WIND       PRES   REMARKS
CEDAR RAPIDS   MOCLDY     1  -6  72 NW6       30.62S WCI -10
CHARLES CITY * PTCLDY    -6 -15  65 N3        30.61R
CLINTON *      CLOUDY    -1  -6  79 NW6       30.63R WCI -13
DECORAH *      CLEAR     -8 -15  71 CALM      30.58R
DUBUQUE        CLOUDY    -1 -11  62 NW7       30.58R WCI -14
MONTICELLO *   CLEAR      0  -9  65 NW6       30.62S WCI -12
OELWEIN *      PTCLDY    -6 -13  71 N5        30.60F WCI -17
WATERLOO       PTCLDY    -4 -11  72 W3        30.63S
$$

IAZ064-065-067-068-078-131400-
   EAST CENTRAL IOWA

CITY           SKY/WX    TMP DP  RH WIND       PRES   REMARKS
DAVENPORT        N/A      2  -5  72 NW7       30.63R WCI -11
IOWA CITY      CLOUDY     4  -8  57 VRB3      30.67R
MT. PLEASANT * CLOUDY     7  -2  66 N7        30.65R WCI  -5
MUSCATINE *    CLEAR      5  -4  66 NW6       30.68R WCI  -6
QUAD CITIES    CLOUDY     5  -6  60 NW9       30.64R WCI  -9
$$

IAZ062-063-075>077-085>089-095>099-131400-
   SOUTHEAST IOWA

CITY           SKY/WX    TMP DP  RH WIND       PRES   REMARKS
BURLINGTON     CLOUDY     5  -2  72 NW5       30.64R WCI  -4
FAIRFIELD *    MOCLDY     3  -6  66 N6        30.65R WCI  -8
FORT MADISON * CLEAR      3  -2  78 CALM      30.65R
KEOKUK *       CLEAR      7   0  72 N7        30.64R WCI  -5
OSKALOOSA *      N/A      3  -2  78 N3        30.64S
CENTERVILLE *  CLOUDY     5   0  78 CALM      30.64R
OTTUMWA        CLOUDY     4  -3  73 N6        30.64R WCI  -7
WASHINGTON *   CLEAR      3  -6  66 N6        30.66R WCI  -8
$$

ABBREVIATIONS USED IN REMARKS
   TC - TEMPERATURES IN CELSIUS
  WCI - WIND CHILL INDEX
   HX - HEAT INDEX
  VSB - VISIBILITY
$$





USA.gov is the U.S. government's official web portal to all federal, state and local government web resources and services.